Temp
8 8 8 8 8 9 9 8 8 8 8 9 9 9 9 9 9 9 9 9 8 8 9 9 9 9 10 11 12 12 10 6 4 5 5 4 5 4 4 6 6 6 5 5 4
7 8 8 8 8 8 9 9 8 8 8 9 9 9 10 10 9 9 9 8 8 8 9 9 9 9 10 10 11 11 9 6 6 6 4 4 5 5 4 4 5 4 4 4 4
7 7 8 8 8 8 9 9 8 8 8 8 9 9 10 9 8 9 9 9 9 8 9 9 9 9 11 10 10 10 9 6 4 5 5 5 4 4 4 4 4 4 3 4 4
6 7 7 8 8 8 8 9 8 8 8 8 9 9 9 9 9 9 9 9 8 9 9 9 9 10 10 10 9 11 6 6 5 4 5 6 5 5 4 4 3 3 4 4 4
6 6 7 7 8 8 8 9 8 8 8 8 9 9 9 9 9 8 9 9 8 9 8 9 9 10 10 8 8 8 6 5 4 4 5 5 5 6 5 4 4 4 4 3 4
6 6 6 7 7 8 8 8 8 8 8 8 8 8 8 8 8 8 9 9 8 8 9 9 9 9 9 8 8 6 6 4 3 4 3 5 5 5 4 3 3 3 4 4 5
6 6 6 6 7 7 7 8 8 8 8 8 8 8 8 8 8 8 9 9 8 8 8 8 9 9 9 7 5 5 7 4 4 4 4 4 4 5 4 3 3 4 4 4 4
6 6 6 6 7 7 7 7 8 8 8 8 8 8 8 8 8 8 9 9 8 8 7 8 8 9 9 7 4 5 6 5 3 4 5 4 3 3 3 2 3 3 3 3 3
6 6 6 6 6 7 7 7 8 8 8 7 7 8 7 7 7 8 8 9 8 7 7 7 8 9 8 9 6 5 5 5 5 5 4 4 4 3 3 2 2 3 3 3 3
6 6 5 5 6 6 6 6 7 8 7 7 7 8 7 7 7 8 8 8 8 8 7 8 7 8 7 7 7 7 6 5 5 4 4 4 4 4 3 2 2 2 2 3 3
5 5 5 5 5 6 6 6 7 7 7 7 7 7 7 7 6 7 7 7 8 8 8 8 8 7 6 6 7 7 6 5 4 4 3 4 3 3 3 3 2 2 2 3 3
4 5 5 5 4 5 5 5 6 7 7 7 7 7 7 7 7 7 7 7 7 8 8 7 7 6 6 6 6 6 6 5 4 3 3 4 3 3 3 3 3 2 2 2 2
4 4 5 4 4 5 5 5 6 6 7 7 7 7 7 7 6 6 7 6 6 7 7 7 6 6 6 6 6 5 5 5 4 3 3 2 2 3 3 2 3 3 2 1 1
3 4 4 4 4 5 4 4 5 5 6 6 6 6 6 6 6 6 5 5 6 6 6 6 6 6 6 6 4 5 4 4 4 3 2 3 4 5 4 3 3 3 2 1 1
2 3 3 4 4 4 4 4 4 5 5 5 5 6 6 5 5 5 5 5 6 6 6 6 5 5 5 5 4 5 4 3 3 3 2 3 2 5 5 4 4 3 2 1 0
2 3 3 3 3 3 4 3 4 4 5 5 5 5 5 5 5 5 4 5 5 5 5 6 5 4 4 4 4 4 3 3 2 3 2 2 2 5 5 5 4 3 3 1 0
1 3 3 2 3 3 3 2 3 4 4 4 4 4 4 5 4 4 5 4 5 4 4 4 4 4 4 4 4 4 3 3 3 2 2 2 1 6 5 4 4 3 3 1 0
1 2 2 2 2 3 3 2 2 4 4 4 4 4 3 4 4 4 4 5 5 5 5 5 4 4 4 4 4 3 4 4 3 3 3 2 1 5 5 5 4 3 3 1 -0
0 1 2 1 1 2 2 0 3 5 5 5 4 3 3 3 4 4 4 4 4 5 6 5 5 4 4 4 3 3 3 4 3 1 0 2 3 5 4 4 4 3 3 1 -0
-0 0 1 1 1 0 1 1 3 5 5 4 5 4 3 3 4 4 4 4 4 4 5 5 5 3 3 4 3 3 3 2 2 1 1 1 3 5 4 4 3 3 2 0 -1
-0 -0 -0 0 -0 -0 0 -1 2 3 5 4 4 4 4 4 4 4 4 4 4 5 4 5 5 2 2 3 3 3 3 3 3 2 2 3 4 4 4 3 2 2 1 -1 -2
-0 -1 -0 0 -0 -1 -0 -1 1 2 4 4 4 3 4 4 4 4 5 5 5 4 4 4 4 3 2 3 3 3 2 3 3 1 1 0 3 3 3 3 2 1 -0 -2 -2
-1 -1 -1 -0 -1 0 0 1 0 1 2 3 4 3 3 4 3 3 4 4 4 4 4 3 3 3 1 2 2 2 3 2 2 2 2 1 3 2 2 2 1 1 -0 -1 -2
-1 -2 -1 -1 -1 -0 1 1 0 0 1 2 3 2 3 3 3 3 3 3 4 4 4 3 3 4 5 4 4 3 4 3 1 1 2 2 3 2 1 1 0 -0 -1 -1 -2
-2 -2 -1 -1 -2 -0 0 -0 -1 -0 1 1 2 2 3 3 2 2 2 3 3 3 3 3 3 3 3 3 3 4 4 3 3 2 1 2 2 1 1 0 -0 -1 -2 -2 -3
-0 -2 -1 -1 -1 0 -0 -1 1 1 0 1 2 2 2 2 3 3 3 3 3 2 2 2 2 2 2 2 2 3 3 3 2 2 2 1 2 1 0 -1 -1 -2 -2 -3 -3
-1 -0 -1 -1 -2 -2 -1 -0 0 1 0 1 1 2 2 2 2 2 2 2 2 2 2 2 2 2 2 2 1 2 4 4 3 3 2 1 2 0 -0 -1 -2 -2 -3 -3 -3
Height
3167 3168 3170 3171 3174 3175 3175 3176 3179 3177 3177 3178 3178 3178 3177 3177 3177 3177 3179 3182 3182 3183 3185 3184 3183 3183 3184 3183 3183 3184 3185 3192 3198 3202 3206 3213 3216 3220 3222 3222 3222 3224 3226 3227 3230
3165 3167 3169 3172 3173 3175 3176 3176 3180 3180 3178 3179 3180 3180 3179 3178 3179 3180 3182 3184 3184 3185 3187 3187 3186 3187 3186 3187 3187 3186 3188 3196 3202 3206 3209 3214 3218 3219 3223 3226 3226 3228 3230 3231 3232
3164 3165 3168 3171 3173 3175 3176 3177 3179 3180 3181 3180 3181 3181 3180 3179 3181 3181 3184 3185 3186 3186 3188 3189 3190 3190 3189 3190 3191 3191 3192 3203 3208 3213 3216 3216 3219 3222 3226 3227 3229 3230 3232 3233 3233
3162 3164 3166 3169 3172 3175 3175 3179 3179 3180 3181 3181 3183 3182 3181 3181 3183 3182 3185 3186 3186 3188 3189 3192 3193 3193 3191 3192 3197 3189 3203 3207 3210 3215 3219 3220 3222 3222 3226 3227 3229 3231 3232 3232 3233
3161 3163 3166 3168 3170 3174 3175 3177 3179 3181 3182 3182 3183 3183 3182 3182 3182 3183 3185 3187 3188 3189 3191 3194 3196 3196 3195 3197 3200 3198 3205 3210 3214 3219 3222 3223 3223 3224 3226 3227 3228 3230 3231 3232 3232
3160 3162 3163 3167 3169 3173 3175 3175 3179 3180 3182 3182 3184 3184 3184 3184 3184 3184 3185 3188 3189 3190 3192 3196 3198 3199 3199 3201 3202 3205 3208 3212 3218 3221 3222 3227 3225 3227 3226 3226 3228 3229 3230 3231 3230
3158 3160 3162 3165 3169 3172 3174 3174 3178 3180 3181 3182 3184 3185 3184 3185 3185 3185 3187 3190 3191 3192 3194 3198 3200 3202 3202 3204 3209 3210 3208 3215 3220 3222 3223 3227 3228 3227 3227 3228 3230 3230 3231 3230 3230
3156 3158 3159 3163 3167 3170 3172 3174 3177 3180 3180 3181 3183 3184 3184 3185 3186 3187 3188 3190 3193 3195 3197 3199 3201 3203 3205 3206 3211 3215 3216 3217 3221 3222 3225 3226 3227 3227 3228 3230 3232 3232 3231 3230 3230
3154 3157 3158 3161 3165 3168 3171 3174 3175 3179 3179 3181 3183 3183 3185 3185 3187 3188 3189 3191 3194 3196 3200 3200 3203 3205 3206 3207 3211 3215 3217 3218 3220 3222 3224 3226 3226 3227 3228 3230 3232 3232 3232 3233 3232
3151 3154 3156 3158 3163 3167 3170 3173 3173 3177 3179 3181 3183 3186 3185 3186 3186 3188 3190 3192 3196 3197 3201 3203 3205 3205 3208 3210 3211 3212 3214 3217 3220 3223 3224 3225 3226 3226 3227 3228 3230 3231 3231 3232 3231
3148 3151 3153 3156 3160 3165 3171 3173 3176 3178 3179 3180 3182 3182 3184 3185 3187 3188 3191 3193 3195 3200 3201 3203 3205 3207 3210 3211 3213 3214 3216 3218 3219 3222 3224 3225 3227 3227 3227 3228 3229 3230 3231 3231 3230
3143 3148 3151 3154 3159 3163 3169 3171 3172 3175 3178 3179 3181 3182 3184 3185 3187 3188 3191 3194 3196 3199 3202 3205 3206 3209 3211 3213 3215 3216 3217 3219 3220 3222 3224 3224 3226 3227 3228 3228 3229 3229 3231 3230 3230
3139 3144 3149 3152 3157 3161 3166 3170 3171 3173 3177 3178 3179 3182 3184 3186 3187 3188 3191 3192 3195 3198 3203 3204 3209 3210 3212 3214 3216 3217 3219 3220 3221 3222 3223 3224 3224 3223 3225 3224 3225 3227 3228 3228 3226
3136 3141 3146 3150 3156 3159 3163 3167 3170 3173 3176 3178 3178 3181 3183 3184 3187 3188 3190 3195 3194 3198 3202 3206 3208 3210 3212 3214 3217 3218 3220 3221 3220 3223 3224 3223 3224 3220 3220 3221 3222 3223 3225 3226 3225
3133 3139 3142 3149 3152 3158 3162 3165 3169 3173 3174 3175 3175 3177 3181 3184 3186 3188 3191 3194 3196 3197 3202 3205 3206 3209 3212 3214 3216 3219 3219 3221 3221 3220 3221 3222 3224 3217 3217 3217 3219 3220 3222 3223 3223
3131 3136 3138 3145 3150 3156 3159 3163 3168 3173 3168 3169 3170 3174 3179 3182 3184 3187 3190 3195 3196 3198 3201 3203 3205 3208 3211 3214 3216 3218 3219 3220 3220 3221 3221 3221 3222 3216 3215 3216 3216 3217 3218 3220 3220
3127 3130 3135 3142 3149 3152 3156 3162 3168 3166 3167 3167 3167 3171 3176 3180 3183 3186 3189 3193 3194 3197 3199 3201 3204 3206 3209 3213 3214 3216 3218 3221 3222 3223 3223 3221 3221 3212 3214 3214 3215 3215 3216 3217 3218
3120 3126 3131 3137 3145 3149 3155 3161 3162 3160 3160 3163 3165 3170 3173 3177 3181 3184 3187 3191 3193 3195 3196 3199 3204 3203 3205 3209 3212 3214 3217 3218 3219 3221 3221 3221 3216 3211 3210 3211 3212 3212 3212 3213 3215
3117 3122 3126 3133 3140 3146 3153 3156 3156 3156 3160 3161 3164 3169 3171 3174 3179 3182 3186 3189 3191 3193 3197 3196 3198 3200 3202 3205 3211 3211 3214 3216 3218 3219 3220 3214 3210 3209 3208 3209 3209 3209 3209 3211 3213
3111 3118 3124 3130 3136 3141 3148 3150 3152 3155 3157 3160 3162 3168 3168 3170 3176 3180 3183 3185 3187 3191 3194 3196 3198 3198 3200 3203 3207 3208 3211 3213 3214 3216 3215 3209 3206 3204 3205 3205 3206 3207 3208 3209 3210
3105 3112 3118 3123 3131 3136 3138 3146 3150 3152 3155 3159 3161 3165 3167 3168 3173 3176 3180 3183 3184 3187 3191 3195 3196 3199 3199 3199 3200 3205 3205 3208 3210 3210 3208 3207 3203 3201 3202 3203 3203 3204 3204 3206 3207
3097 3105 3113 3119 3125 3126 3132 3143 3148 3150 3151 3155 3159 3164 3166 3167 3170 3172 3176 3180 3181 3184 3187 3192 3194 3195 3197 3196 3197 3199 3201 3203 3204 3203 3203 3204 3201 3198 3199 3200 3200 3200 3201 3201 3201
3091 3100 3108 3113 3114 3118 3129 3137 3144 3147 3150 3152 3157 3161 3163 3166 3170 3170 3172 3177 3179 3182 3183 3188 3190 3193 3194 3197 3193 3193 3195 3197 3199 3199 3197 3200 3196 3195 3195 3195 3195 3195 3196 3196 3197
3088 3094 3102 3106 3111 3118 3125 3132 3139 3145 3149 3150 3153 3159 3159 3164 3164 3165 3169 3173 3176 3179 3180 3184 3186 3188 3187 3185 3187 3188 3190 3193 3195 3195 3192 3190 3191 3191 3191 3190 3190 3191 3191 3192 3191
3078 3083 3089 3093 3104 3114 3121 3127 3137 3142 3144 3147 3150 3156 3158 3161 3161 3163 3166 3170 3172 3174 3176 3180 3180 3183 3185 3184 3184 3185 3186 3188 3188 3190 3189 3187 3187 3187 3187 3187 3186 3186 3186 3187 3187
3068 3075 3084 3097 3102 3109 3113 3118 3128 3135 3138 3142 3148 3153 3155 3158 3161 3161 3163 3166 3169 3170 3172 3175 3177 3178 3180 3180 3181 3181 3180 3181 3181 3182 3182 3183 3182 3182 3182 3182 3182 3181 3181 3182 3181
3062 3073 3084 3089 3094 3100 3104 3113 3121 3129 3135 3140 3146 3150 3153 3157 3159 3160 3161 3163 3165 3167 3169 3171 3172 3175 3176 3176 3177 3177 3174 3174 3174 3174 3177 3177 3179 3179 3179 3179 3177 3177 3177 3176 3174
Wind_Speed
7 7 8 9 8 7 8 8 6 6 9 9 10 11 12 13 16 18 10 12 14 13 16 16 15 11 16 23 27 27 35 35 32 29 30 23 17 18 21 21 15 13 15 14 7
9 9 10 11 11 9 10 10 7 6 7 7 7 9 10 13 16 14 12 11 13 13 14 10 10 11 16 18 23 25 35 31 24 26 25 19 15 20 19 14 10 18 12 12 8
11 11 13 14 13 12 11 9 7 6 7 6 6 8 9 9 12 13 11 8 13 12 13 8 7 9 16 16 20 28 34 32 28 23 19 20 21 16 13 16 15 10 9 6 7
12 12 15 17 16 14 13 9 7 5 5 3 4 6 7 7 4 9 7 5 12 17 14 10 7 11 23 27 24 27 34 30 28 23 20 17 16 16 11 12 12 8 9 7 6
13 13 16 19 18 17 14 11 8 5 4 2 3 3 5 3 10 11 8 8 15 17 13 12 9 13 18 25 28 31 35 32 27 23 20 17 14 12 15 15 10 7 4 2 3
14 14 16 20 20 19 15 13 9 7 6 3 3 3 6 5 10 11 12 7 15 17 16 14 8 8 16 22 26 32 32 31 27 20 19 6 15 9 13 10 7 5 4 4 6
16 16 16 20 21 20 17 14 10 9 6 4 4 5 4 8 10 12 12 6 15 15 17 16 7 7 13 27 30 29 27 26 17 12 16 11 14 12 12 12 7 7 7 7 7
17 17 17 19 21 21 18 15 12 10 7 5 6 6 7 11 11 13 11 10 17 11 10 10 9 4 4 18 25 19 19 18 16 12 8 8 14 15 17 18 13 14 14 12 10
19 18 18 19 22 22 20 15 12 10 7 5 5 6 11 12 11 13 14 12 17 16 11 11 6 2 11 11 19 9 9 12 13 10 7 7 12 15 19 21 15 15 14 12 10
19 20 19 20 21 22 22 15 12 11 6 5 6 10 12 14 12 12 14 14 12 14 13 11 9 11 17 13 5 11 16 13 8 6 7 8 11 14 16 16 13 10 11 11 10
18 20 20 20 20 22 21 15 12 10 7 7 7 8 13 13 13 12 13 14 12 12 12 11 13 18 15 4 6 8 9 10 10 9 8 7 13 14 14 13 11 9 7 6 7
17 20 21 20 19 20 19 16 11 9 8 7 8 10 12 13 15 14 13 13 12 12 12 17 17 16 8 7 10 9 9 11 10 8 4 6 10 12 13 13 12 12 9 5 4
18 20 21 20 18 19 18 17 11 9 6 7 8 12 11 13 15 17 15 13 15 17 18 18 17 9 7 10 6 9 6 8 3 8 4 4 8 11 12 12 9 8 6 2 3
19 21 21 22 21 19 19 17 11 9 4 8 10 11 13 14 16 17 16 18 22 20 19 9 12 11 11 10 8 6 7 3 2 3 1 2 4 7 11 12 12 10 8 4 1
18 22 22 22 20 21 19 17 13 11 2 8 14 14 16 16 16 18 20 19 18 20 11 10 14 14 13 11 9 3 6 2 4 1 4 5 6 5 7 11 11 10 10 7 3
23 25 24 21 20 19 20 19 15 9 6 9 14 18 19 20 15 21 22 19 16 16 11 8 14 13 13 10 8 3 5 3 1 4 3 3 6 6 5 2 6 9 10 8 4
27 28 27 23 20 21 18 18 12 7 8 9 13 19 21 22 18 20 23 20 14 15 13 10 14 14 16 12 10 7 6 1 2 1 3 2 7 10 6 7 8 6 8 9 7
28 28 29 26 28 22 23 20 9 10 14 9 13 19 21 22 22 20 22 22 21 14 16 13 9 17 14 16 10 14 13 4 4 2 1 5 8 4 5 7 13 16 12 13 10
33 29 29 29 28 30 24 29 14 11 18 11 12 19 21 23 18 20 21 22 20 17 10 15 10 18 14 16 14 13 14 12 3 5 3 6 10 13 12 9 9 10 11 10 11
37 28 29 33 32 30 32 24 16 15 10 16 12 16 22 26 21 18 17 19 22 21 18 9 7 15 17 17 17 13 10 7 9 4 4 5 8 10 3 4 5 5 7 10 12
36 37 33 33 34 36 39 30 18 20 17 12 17 13 15 23 24 19 13 13 24 23 20 14 10 11 17 17 18 18 18 12 8 5 4 2 4 5 4 5 5 6 8 9 14
43 41 39 37 38 42 42 34 21 20 23 18 14 16 14 18 26 25 21 16 15 24 22 19 9 8 16 14 18 21 20 19 10 7 8 4 9 9 4 4 6 8 10 14 18
44 41 41 42 46 42 41 40 27 21 23 22 16 14 15 15 15 25 23 21 13 18 16 18 11 6 4 11 17 21 24 23 22 16 13 5 6 6 7 9 10 13 15 18 20
43 45 42 45 43 42 42 40 33 28 21 22 20 15 13 16 21 12 26 22 21 18 19 16 17 11 9 4 4 9 16 23 23 14 17 23 19 18 17 15 12 13 17 20 22
50 42 49 47 49 44 40 39 38 31 27 21 20 17 16 17 21 18 21 23 21 20 19 20 15 18 18 13 11 10 12 12 19 24 21 21 20 17 16 14 15 16 18 21 22
53 47 50 45 37 45 40 41 37 42 34 31 25 20 17 16 12 5 20 17 20 24 19 18 13 15 15 17 16 17 20 21 21 24 27 27 27 21 19 20 20 20 20 23 26
52 46 41 42 42 40 49 44 42 37 37 32 28 22 21 15 11 11 9 13 9 15 18 19 16 12 8 12 12 18 24 25 26 27 24 25 22 20 19 18 19 18 19 20 23
Wind_Direction
233 222 202 183 178 161 143 133 141 126 111 117 116 99 88 88 81 69 82 96 128 108 96 86 89 98 118 130 125 123 120 128 135 140 135 142 148 142 152 147 149 152 147 140 118
219 217 204 192 182 172 155 142 146 135 119 122 120 106 94 93 83 75 86 101 120 144 111 85 113 105 121 118 126 121 119 122 135 140 132 142 154 146 146 159 152 145 146 126 116
219 208 204 197 188 179 163 158 157 146 135 126 126 110 108 100 97 86 82 102 119 130 135 96 93 111 109 113 125 121 114 114 111 111 112 122 119 110 123 126 124 139 123 120 156
225 213 205 198 191 191 171 177 166 170 159 138 127 133 129 124 109 96 90 105 118 127 138 134 103 121 106 99 105 102 104 108 106 109 114 120 115 125 145 135 127 141 154 178 178
231 218 213 203 195 199 183 185 184 196 194 155 146 158 158 140 121 100 103 139 119 129 136 154 147 118 109 105 111 106 112 106 109 115 118 115 125 131 128 118 121 131 115 153 238
232 225 215 208 200 203 195 185 199 198 212 172 188 181 146 152 111 103 106 123 119 131 139 154 149 135 114 118 115 120 117 115 123 124 113 145 128 136 111 90 64 50 15 351 325
235 226 219 212 204 208 201 186 203 207 209 199 213 216 169 140 122 111 120 98 131 144 154 157 165 152 128 122 119 123 126 126 123 121 109 118 114 119 112 97 86 83 86 82 69
241 228 218 215 207 210 206 195 202 218 212 225 232 226 181 152 135 123 117 111 132 150 177 143 143 150 100 132 127 131 123 125 129 129 123 126 129 125 119 107 111 110 103 90 78
242 231 221 213 211 212 211 208 199 217 213 244 244 203 167 158 151 140 128 125 146 147 162 144 143 174 121 136 128 139 140 133 130 128 118 118 138 135 125 118 118 117 104 92 82
234 232 223 214 213 215 214 217 198 211 213 234 214 168 172 165 166 164 149 143 143 154 174 162 176 151 143 142 152 155 145 145 143 146 137 120 151 142 130 132 123 119 98 80 70
225 229 223 217 213 216 215 221 201 200 212 213 205 188 181 178 174 177 164 154 156 160 177 171 181 151 148 168 153 154 155 153 149 156 133 133 149 152 151 148 145 121 117 88 65
219 225 221 219 216 213 212 218 205 195 199 208 221 203 187 188 183 179 171 164 161 163 160 146 154 148 151 141 139 140 157 146 148 155 159 156 166 175 171 174 165 155 149 144 77
215 222 217 217 215 211 208 211 204 186 208 198 203 214 192 188 191 176 171 160 143 151 150 147 159 170 175 154 145 134 123 143 166 174 167 198 222 214 202 203 197 179 163 146 31
213 218 214 212 212 206 206 204 199 182 205 212 201 202 198 187 188 181 166 161 150 157 150 143 162 152 149 164 150 151 150 168 98 170 278 265 298 257 229 222 218 213 190 193 265
220 213 206 212 214 209 204 196 190 180 191 208 199 199 198 185 188 185 172 171 172 167 166 156 163 162 156 171 171 176 173 199 158 251 324 278 289 276 259 240 232 227 216 215 253
218 211 203 207 208 204 203 195 182 190 219 194 193 195 197 194 186 187 183 183 181 182 181 166 176 168 176 182 197 180 172 147 294 313 314 279 221 280 275 226 225 234 238 228 247
212 209 200 206 213 211 207 186 181 213 188 199 199 193 193 197 192 194 193 194 189 178 183 171 182 187 190 199 209 212 173 65 4 6 256 305 230 247 243 258 230 256 266 234 238
214 212 203 206 207 205 203 184 209 191 184 183 193 193 193 197 202 201 204 205 206 202 189 184 181 200 202 207 213 202 203 191 198 203 277 229 241 257 252 255 254 267 246 224 238
212 213 204 196 207 203 205 191 210 191 207 196 171 192 193 199 204 205 205 210 211 208 205 195 196 199 202 205 201 209 209 222 236 260 253 231 261 277 267 271 270 261 249 237 234
212 215 203 200 201 196 203 201 201 193 186 205 190 204 207 200 200 202 203 216 212 212 213 215 191 203 206 206 211 208 208 196 201 175 240 242 256 234 265 279 280 258 243 225 229
214 212 202 203 206 205 209 206 201 199 210 209 207 210 217 211 208 203 206 214 210 212 215 219 218 203 206 213 217 220 216 214 205 207 210 272 244 234 287 291 256 242 226 217 236
210 202 202 200 200 204 205 202 205 202 205 214 213 219 223 214 215 206 212 214 211 212 212 215 223 203 211 218 221 226 229 225 224 216 207 206 268 265 250 279 264 244 223 226 240
203 201 203 203 199 202 202 206 204 204 210 214 214 219 218 219 210 216 216 217 214 214 210 212 216 184 199 235 231 229 232 231 234 243 241 206 257 238 285 288 282 252 241 240 251
202 201 204 207 205 211 207 209 206 213 212 213 213 214 211 215 213 219 220 217 216 218 216 213 220 219 221 203 197 217 249 241 234 241 246 249 264 273 281 287 285 272 262 256 262
205 205 207 207 211 214 218 228 211 206 209 209 210 217 222 211 211 219 215 215 211 213 216 216 223 229 239 246 246 247 255 252 249 252 250 268 270 274 281 286 288 281 272 265 268
211 207 212 213 218 220 212 206 213 214 216 215 215 212 216 229 245 254 230 218 220 217 209 216 226 231 237 247 254 259 258 258 255 255 254 259 266 270 277 284 285 281 271 269 273
219 224 220 222 219 219 215 216 213 218 218 221 220 216 221 220 221 226 213 214 220 220 221 217 223 230 234 245 258 268 261 262 264 264 266 262 277 274 278 281 281 280 273 275 281